Stündliche Wetter Holubne

Heute, 21 Juni, Montag

Zeit Temperatur Niederschläge Wind Luftdruck Luftfeuchtigkeit
00:00 +19°C° 0 mm 2 m/S 744 mmHg 92%
01:00 +19°C° 0 mm 2 m/S 744 mmHg 94%
02:00 +18°C° 0 mm 2 m/S 744 mmHg 95%
03:00 +19°C° 0 mm 2 m/S 744 mmHg 96%
04:00 +19°C° 0 mm 2 m/S 743 mmHg 96%
05:00 +19°C° 0 mm 2 m/S 743 mmHg 96%
06:00 +20°C° 0 mm 3 m/S 743 mmHg 89%
07:00 +22°C° 0 mm 3 m/S 743 mmHg 83%
08:00 +25°C° 0 mm 4 m/S 743 mmHg 76%
09:00 +26°C° 0 mm 4 m/S 743 mmHg 71%
10:00 +27°C° 0 mm 4 m/S 743 mmHg 65%
11:00 +28°C° 0 mm 4 m/S 743 mmHg 60%
12:00 +28°C° 0.6 mm 4 m/S 743 mmHg 61%
13:00 +29°C° 0.6 mm 3 m/S 742 mmHg 61%
14:00 +29°C° 0.6 mm 3 m/S 742 mmHg 62%
15:00 +28°C° 0.4 mm 3 m/S 742 mmHg 64%
16:00 +28°C° 0.4 mm 2 m/S 742 mmHg 66%
17:00 +28°C° 0.4 mm 2 m/S 742 mmHg 67%
18:00 +27°C° 0.3 mm 2 m/S 742 mmHg 73%
19:00 +25°C° 0.3 mm 2 m/S 742 mmHg 80%
20:00 +24°C° 0.3 mm 2 m/S 742 mmHg 86%
21:00 +23°C° 0 mm 2 m/S 742 mmHg 88%
22:00 +23°C° 0 mm 2 m/S 742 mmHg 90%
23:00 +21°C° 0 mm 2 m/S 742 mmHg 92%

Morgen, 22 Juni, Dienstag

Zeit Temperatur Niederschläge Wind Luftdruck Luftfeuchtigkeit
00:00 +20°C° 0 mm 2 m/S 742 mmHg 93%
01:00 +20°C° 0 mm 2 m/S 743 mmHg 93%
02:00 +20°C° 0 mm 2 m/S 743 mmHg 94%
03:00 +20°C° 0 mm 2 m/S 743 mmHg 94%
04:00 +20°C° 0 mm 2 m/S 743 mmHg 94%
05:00 +20°C° 0 mm 2 m/S 743 mmHg 94%
06:00 +21°C° 0 mm 3 m/S 743 mmHg 88%
07:00 +24°C° 0 mm 3 m/S 743 mmHg 82%
08:00 +25°C° 0 mm 3 m/S 744 mmHg 76%
09:00 +27°C° 0 mm 3 m/S 744 mmHg 69%
10:00 +28°C° 0 mm 3 m/S 744 mmHg 62%
11:00 +30°C° 0 mm 3 m/S 744 mmHg 55%
12:00 +31°C° 0 mm 3 m/S 744 mmHg 54%
13:00 +31°C° 0 mm 3 m/S 743 mmHg 52%
14:00 +33°C° 0 mm 4 m/S 743 mmHg 51%
15:00 +33°C° 0.1 mm 3 m/S 743 mmHg 53%
16:00 +31°C° 0.1 mm 3 m/S 743 mmHg 56%
17:00 +31°C° 0.1 mm 3 m/S 743 mmHg 58%
18:00 +29°C° 0.1 mm 3 m/S 743 mmHg 65%
19:00 +27°C° 0.1 mm 3 m/S 743 mmHg 72%
20:00 +25°C° 0.1 mm 3 m/S 743 mmHg 78%
21:00 +24°C° 0 mm 3 m/S 743 mmHg 83%
22:00 +22°C° 0 mm 3 m/S 744 mmHg 87%
23:00 +21°C° 0 mm 2 m/S 744 mmHg 92%

übermorgen, 23 Juni, Mittwoch

Zeit Temperatur Niederschläge Wind Luftdruck Luftfeuchtigkeit
00:00 +21°C° 0 mm 2 m/S 744 mmHg 93%
01:00 +20°C° 0 mm 2 m/S 744 mmHg 94%
02:00 +20°C° 0 mm 2 m/S 744 mmHg 95%
03:00 +20°C° 0 mm 2 m/S 744 mmHg 95%
04:00 +20°C° 0 mm 2 m/S 744 mmHg 94%
05:00 +20°C° 0 mm 2 m/S 744 mmHg 94%
06:00 +23°C° 0 mm 2 m/S 745 mmHg 88%
07:00 +25°C° 0 mm 2 m/S 745 mmHg 82%
08:00 +27°C° 0 mm 3 m/S 745 mmHg 76%
09:00 +28°C° 0 mm 3 m/S 745 mmHg 71%
10:00 +30°C° 0 mm 2 m/S 745 mmHg 66%
11:00 +31°C° 0 mm 2 m/S 745 mmHg 60%
12:00 +33°C° 0.1 mm 3 m/S 745 mmHg 57%
13:00 +33°C° 0.1 mm 3 m/S 745 mmHg 53%
14:00 +34°C° 0.1 mm 3 m/S 745 mmHg 49%
15:00 +34°C° 0 mm 3 m/S 745 mmHg 51%
16:00 +33°C° 0 mm 3 m/S 745 mmHg 54%
17:00 +33°C° 0 mm 3 m/S 745 mmHg 56%
18:00 +30°C° 0 mm 2 m/S 745 mmHg 62%
19:00 +29°C° 0 mm 2 m/S 745 mmHg 68%
20:00 +27°C° 0 mm 1 m/S 745 mmHg 74%
21:00 +26°C° 0.1 mm 1 m/S 745 mmHg 76%
22:00 +25°C° 0.1 mm 1 m/S 746 mmHg 79%
23:00 +24°C° 0.1 mm 1 m/S 746 mmHg 82%

24 Juni, Donnerstag

Zeit Temperatur Niederschläge Wind Luftdruck Luftfeuchtigkeit
00:00 +24°C° 0 mm 1 m/S 746 mmHg 83%
01:00 +23°C° 0 mm 1 m/S 746 mmHg 85%
02:00 +23°C° 0 mm 1 m/S 746 mmHg 87%
03:00 +23°C° 0 mm 1 m/S 746 mmHg 87%
04:00 +23°C° 0 mm 1 m/S 746 mmHg 87%
05:00 +22°C° 0 mm 1 m/S 746 mmHg 87%
06:00 +24°C° 0 mm 1 m/S 746 mmHg 81%
07:00 +26°C° 0 mm 1 m/S 746 mmHg 76%
08:00 +27°C° 0 mm 1 m/S 746 mmHg 71%
09:00 +28°C° 0 mm 2 m/S 746 mmHg 65%
10:00 +30°C° 0 mm 2 m/S 746 mmHg 59%
11:00 +31°C° 0 mm 2 m/S 746 mmHg 53%
12:00 +32°C° 0 mm 2 m/S 746 mmHg 51%
13:00 +32°C° 0 mm 2 m/S 746 mmHg 49%
14:00 +34°C° 0 mm 2 m/S 746 mmHg 47%
15:00 +34°C° 0 mm 2 m/S 746 mmHg 48%
16:00 +32°C° 0 mm 2 m/S 746 mmHg 50%
17:00 +32°C° 0 mm 1 m/S 746 mmHg 51%
18:00 +31°C° 0.1 mm 1 m/S 746 mmHg 59%
19:00 +29°C° 0.1 mm 1 m/S 745 mmHg 66%
20:00 +27°C° 0.1 mm 1 m/S 745 mmHg 74%
21:00 +26°C° 0.2 mm 1 m/S 745 mmHg 77%
22:00 +25°C° 0.2 mm 1 m/S 745 mmHg 80%
23:00 +22°C° 0.2 mm 0 m/S 745 mmHg 83%

25 Juni, Freitag

Zeit Temperatur Niederschläge Wind Luftdruck Luftfeuchtigkeit
00:00 +22°C° 0 mm 0 m/S 745 mmHg 84%
01:00 +23°C° 0 mm 1 m/S 745 mmHg 85%
02:00 +23°C° 0 mm 1 m/S 745 mmHg 86%
03:00 +23°C° 0 mm 1 m/S 745 mmHg 87%
04:00 +23°C° 0 mm 1 m/S 745 mmHg 87%
05:00 +23°C° 0 mm 1 m/S 744 mmHg 87%
06:00 +25°C° 0 mm 1 m/S 745 mmHg 81%
07:00 +26°C° 0 mm 1 m/S 745 mmHg 76%
08:00 +28°C° 0 mm 2 m/S 745 mmHg 71%
09:00 +29°C° 0 mm 2 m/S 745 mmHg 66%
10:00 +30°C° 0 mm 2 m/S 745 mmHg 60%
11:00 +32°C° 0 mm 2 m/S 745 mmHg 55%
12:00 +33°C° 0 mm 3 m/S 744 mmHg 53%
13:00 +34°C° 0 mm 3 m/S 744 mmHg 50%
14:00 +34°C° 0 mm 3 m/S 744 mmHg 48%
15:00 +34°C° 0 mm 3 m/S 743 mmHg 50%
16:00 +34°C° 0 mm 3 m/S 743 mmHg 52%
17:00 +34°C° 0 mm 3 m/S 743 mmHg 53%
18:00 +30°C° 0.6 mm 4 m/S 743 mmHg 64%
19:00 +27°C° 0.6 mm 4 m/S 743 mmHg 74%
20:00 +23°C° 0.6 mm 5 m/S 744 mmHg 85%
21:00 +22°C° 1.3 mm 4 m/S 744 mmHg 88%
22:00 +20°C° 1.3 mm 3 m/S 744 mmHg 91%
23:00 +19°C° 1.3 mm 2 m/S 744 mmHg 94%

26 Juni, Samstag

Zeit Temperatur Niederschläge Wind Luftdruck Luftfeuchtigkeit
00:00 +19°C° 0.2 mm 2 m/S 744 mmHg 94%
01:00 +18°C° 0.2 mm 2 m/S 744 mmHg 93%
02:00 +19°C° 0.2 mm 1 m/S 743 mmHg 93%
03:00 +18°C° 0 mm 2 m/S 744 mmHg 93%
04:00 +18°C° 0 mm 2 m/S 744 mmHg 94%
05:00 +18°C° 0 mm 2 m/S 744 mmHg 94%
06:00 +19°C° 0 mm 2 m/S 744 mmHg 89%
07:00 +21°C° 0 mm 3 m/S 744 mmHg 85%
08:00 +22°C° 0 mm 3 m/S 744 mmHg 80%
09:00 +24°C° 0 mm 3 m/S 744 mmHg 77%
10:00 +25°C° 0 mm 3 m/S 744 mmHg 73%
11:00 +26°C° 0 mm 3 m/S 745 mmHg 70%
12:00 +26°C° 0 mm 3 m/S 744 mmHg 68%
13:00 +27°C° 0 mm 3 m/S 744 mmHg 66%
14:00 +27°C° 0 mm 3 m/S 744 mmHg 64%
15:00 +26°C° 0.4 mm 3 m/S 744 mmHg 68%
16:00 +26°C° 0.4 mm 3 m/S 743 mmHg 73%
17:00 +25°C° 0.4 mm 3 m/S 743 mmHg 77%
18:00 +24°C° 0 mm 3 m/S 743 mmHg 79%
19:00 +23°C° 0 mm 2 m/S 743 mmHg 82%
20:00 +21°C° 0 mm 2 m/S 743 mmHg 85%
21:00 +20°C° 0 mm 2 m/S 743 mmHg 87%
22:00 +19°C° 0 mm 2 m/S 743 mmHg 89%
23:00 +18°C° 0 mm 2 m/S 743 mmHg 91%
Mehr zeigen

Wir brauchen deine Erlaubnis

Meteoprog und unser Service Anbieter werden persönliche Daten aufbewahren, so wie Cookies, Geräte Bezeichnung oder ähnliche Technologien von deinem Gerät und Prozess, so wie Persönliche Daten Inhalte und Werbungen, genauso wie social Media und den Verkehr zu analysieren.

  • Aufbewahrung und/oder Zugang zu deiner Geräte Informationen.

    Cookies, Geräte Bezeichnung oder andere Informationen, können aufbewahrt oder Zugang zu deinem Gerät erhalten, für den Grund, der oben angegeben wird.

  • Personalisierte Werbung und Inhalte, Messungen, Einblick in das Publikum und Produkt Entwicklung.

    Werbungen und Inhalte können personalisiert werden, basierend auf ein Profil. Mehr Daten können besser personalisierte Werbungen und Inhalte hinzufügen. Werbung und Inhalte können gezeigt und gemessen werden. Einblicke über das Publikum, welche die Werbung gesehen haben und den Inhalt, können abgeleitet werden. So wie Daten können genutzt werden, um es zu verbessern oder die Benutzer Erfahrung zu verbessern das System und die Software.

Wenn du “Ich stimme zu” klickst, erlaubst du uns, die Cookies zu benutzen die Geräte Bezeichnung, den Web oder ähnliche Technologien zu benutzen. Deine Settings, können in deinem Gerät bei deinem Browser geändert werden.

Für den bestimmten Zweck, berechtigten Interessen beruhen darauf, mehr als auf den Inhalt. Du kannst mehr darüber in unseren Privaten und Cookie Politik lesen.